Weather History for Window Rock, AZ

Change the Weather History Date:

Wednesday, December 26, 2012

  Actual Average Record
Temperature  
Mean Temperature 21 °F -  
Max Temperature 39 °F 42 °F 60 °F (1955)
Min Temperature 3 °F 13 °F -11 °F (2002)
Degree Days  
Heating Degree Days 44    
Moisture  
Dew Point 20 °F    
Average Humidity 79    
Maximum Humidity 100    
Minimum Humidity 28    
Precipitation  
Precipitation 0.04 in - - ()
Sea Level Pressure  
Sea Level Pressure 29.82 in    
Wind  
Wind Speed 6 mph (SW)    
Max Wind Speed 20 mph    
Max Gust Speed 30 mph    
Visibility 5 miles    
Events Snow    
Averages and records for this station are not official NWS values.
T = Trace of Precipitation, MM = Missing Value Source: NWS Daily Summary

Daily Weather History Graph

Daily Weather History Graph

Search for Another Location

Airport:

Trip Planner

Search our weather history database for the weather conditions in past years. The results will help you decide how hot, cold, wet, or windy it might be!

Date:

Astronomy

Dec. 26, 2012 Rise Set
Actual Time 7:24 AM MST 5:09 PM MST
Civil Twilight 6:56 AM MST 5:38 PM MST
Nautical Twilight 6:24 AM MST 6:10 PM MST
Astronomical Twilight 5:53 AM MST 6:41 PM MST
Moon 4:05 PM MST (12/26) 5:51 AM MST (12/26)
Length of Visible Light 10h 42m
Length of Day
9h 45m
Waxing Gibbous, 98% of the Moon is Illuminated
Dec 26
Waxing Gibbous
Dec 28
Full
Jan 4
Last Quarter
Jan 11
New
Jan 18
First Quarter

Hourly Weather History & Observations

Time (MST) Temp. Windchill Dew Point Humidity Pressure Visibility Wind Dir Wind Speed Gust Speed Precip Events Conditions
1:53 AM 5.0 °F - 1.9 °F 87% 30.07 in 10.0 mi Calm Calm - N/A   Clear
6:53 AM 3.9 °F - 1.0 °F 88% 30.04 in 10.0 mi Calm Calm - N/A   Mostly Cloudy
9:53 AM 18.0 °F 12.7 °F 12.0 °F 78% 30.00 in 10.0 mi NNW 3.5 mph - N/A   Overcast
10:53 AM 23.0 °F - 15.1 °F 72% 29.96 in 10.0 mi Calm Calm - N/A   Clear
11:53 AM 37.0 °F 32.4 °F 9.0 °F 31% 29.86 in 10.0 mi Variable 5.8 mph 16.1 mph N/A   Scattered Clouds
12:53 PM 39.0 °F 29.6 °F 8.1 °F 28% 29.81 in 10.0 mi SW 18.4 mph 29.9 mph N/A   Clear
1:53 PM 37.9 °F 28.5 °F 14.0 °F 38% 29.80 in 10.0 mi SW 17.3 mph 26.5 mph N/A   Mostly Cloudy
2:53 PM 37.9 °F 27.9 °F 17.1 °F 43% 29.78 in 10.0 mi SW 19.6 mph 26.5 mph N/A   Scattered Clouds
3:53 PM 36.0 °F 26.7 °F 17.1 °F 46% 29.79 in 10.0 mi WSW 15.0 mph 26.5 mph N/A   Overcast
4:53 PM 35.1 °F 27.4 °F 19.9 °F 54% 29.77 in 10.0 mi WSW 10.4 mph - N/A   Overcast
5:41 PM 32.0 °F 20.8 °F 24.8 °F 75% 29.76 in 2.0 mi West 17.3 mph 29.9 mph 0.00 in Snow Light Snow
5:49 PM 30.2 °F 19.8 °F 26.6 °F 86% 29.76 in 1.5 mi West 13.8 mph - 0.00 in Snow Light Snow
5:53 PM 30.0 °F 21.1 °F 26.1 °F 85% 29.84 in 1.8 mi West 10.4 mph - 0.00 in Snow Light Snow
6:09 PM 28.4 °F 20.4 °F 26.6 °F 93% 29.77 in 3.0 mi WSW 8.1 mph - 0.00 in Snow Light Snow
6:24 PM 28.4 °F 23.3 °F 24.8 °F 86% 29.76 in 10.0 mi WSW 4.6 mph - 0.00 in   Overcast
6:53 PM 28.9 °F 21.1 °F 25.0 °F 85% 29.84 in 5.0 mi WSW 8.1 mph - 0.00 in Snow Light Snow
7:53 PM 27.0 °F 20.5 °F 24.1 °F 89% 29.84 in 4.0 mi SW 5.8 mph - 0.00 in Snow Light Snow
8:32 PM 26.6 °F 21.2 °F 24.8 °F 93% 29.77 in 2.5 mi SW 4.6 mph - 0.00 in Snow Light Snow
8:41 PM 26.6 °F 22.6 °F 24.8 °F 93% 29.77 in 1.0 mi SW 3.5 mph - 0.00 in Snow Light Snow
8:53 PM 27.0 °F - 24.1 °F 89% 29.83 in 1.8 mi Calm Calm - 0.01 in Snow Light Snow
9:29 PM 26.6 °F 22.6 °F 24.8 °F 93% 29.77 in 0.8 mi South 3.5 mph - 0.01 in Snow Light Snow
9:36 PM 26.6 °F 21.2 °F 24.8 °F 93% 29.77 in 1.0 mi South 4.6 mph - 0.01 in Snow Light Snow
9:53 PM 26.1 °F 21.9 °F 24.1 °F 92% 29.81 in 2.5 mi South 3.5 mph - 0.01 in Snow Light Snow
10:17 PM 24.8 °F 19.1 °F 24.8 °F 100% 29.78 in 3.0 mi SSW 4.6 mph - 0.01 in Snow Light Snow
10:32 PM 26.6 °F 21.2 °F 23.0 °F 86% 29.78 in 5.0 mi SSW 4.6 mph - 0.01 in Snow Light Snow
10:53 PM 26.1 °F 21.9 °F 23.0 °F 88% 29.79 in 2.0 mi SSW 3.5 mph - 0.01 in Snow Light Snow
11:21 PM 24.8 °F - 23.0 °F 93% 29.79 in 1.0 mi Calm Calm - 0.00 in Snow Light Snow
11:25 PM 24.8 °F - 23.0 °F 93% 29.79 in 0.8 mi Calm Calm - 0.01 in Snow Light Snow
11:38 PM 24.8 °F 16.9 °F 23.0 °F 93% 29.79 in 1.5 mi SW 6.9 mph - 0.01 in Snow Light Snow
11:44 PM 24.8 °F 17.9 °F 23.0 °F 93% 29.79 in 2.5 mi SW 5.8 mph - 0.01 in Snow Light Snow
11:53 PM 25.0 °F 19.3 °F 21.9 °F 88% 29.74 in 3.0 mi WSW 4.6 mph - 0.01 in Snow Light Snow